Weather History for Whiteman AFB, MO

Change the Weather History Date:

Saturday, August 9, 2014

  Actual Average Record
Temperature  
Mean Temperature 72 °F -  
Max Temperature 80 °F 85 °F 102 °F (2006)
Min Temperature 65 °F 65 °F 61 °F (2008)
Cooling Degree Days 8    
Growing Degree Days 22 (Base 50)    
Moisture  
Dew Point 61 °F    
Average Humidity 68    
Maximum Humidity 80    
Minimum Humidity 49    
Precipitation  
Precipitation 0.00 in - - ()
Sea Level Pressure  
Sea Level Pressure 30.00 in    
Wind  
Wind Speed 2 mph (East)    
Max Wind Speed 5 mph    
Max Gust Speed -    
Visibility 9 miles    
Events Fog    
Averages and records for this station are not official NWS values.
T = Trace of Precipitation, MM = Missing Value Source: NWS Daily Summary

Daily Weather History Graph

Daily Weather History Graph

Search for Another Location

Airport:

Trip Planner

Search our weather history database for the weather conditions in past years. The results will help you decide how hot, cold, wet, or windy it might be!

Date:

Astronomy

Aug. 09, 2014 Rise Set
Actual Time 6:22 AM CDT 8:16 PM CDT
Civil Twilight 5:53 AM CDT 8:44 PM CDT
Nautical Twilight 5:18 AM CDT 9:19 PM CDT
Astronomical Twilight 4:40 AM CDT 9:57 PM CDT
Moon 7:18 PM CDT (8/9) 5:04 AM CDT (8/9)
Length of Visible Light 14h 51m
Length of Day
13h 53m
Waxing Gibbous, 98% of the Moon is Illuminated
Aug 9
Waxing Gibbous
Aug 10
Full
Aug 17
Last Quarter
Aug 25
New
Sep 2
First Quarter

Hourly Weather History & Observations

Time (CDT) Temp. Heat Index Dew Point Humidity Pressure Visibility Wind Dir Wind Speed Gust Speed Precip Events Conditions
12:17 AM 68.0 °F - 59.0 °F 73% 30.00 in 10.0 mi ENE 3.5 mph - N/A   Light Drizzle
12:55 AM 66.7 °F - 59.4 °F 77% 29.99 in 10.0 mi Calm Calm - 0.00 in   Mostly Cloudy
1:55 AM 65.8 °F - 59.0 °F 79% 29.97 in 5.0 mi Calm Calm - N/A Fog Mostly Cloudy
2:55 AM 66.4 °F - 59.9 °F 80% 29.96 in 6.0 mi Calm Calm - N/A   Overcast
3:55 AM 67.6 °F - 61.3 °F 80% 29.96 in 10.0 mi Calm Calm - N/A   Overcast
4:55 AM 68.4 °F - 62.1 °F 80% 29.98 in 5.0 mi Calm Calm - N/A   Overcast
5:55 AM 68.2 °F - 61.9 °F 80% 29.99 in 6.0 mi Calm Calm - N/A   Overcast
6:55 AM 68.5 °F - 62.2 °F 80% 30.01 in 4.0 mi WNW 3.5 mph - N/A   Overcast
7:58 AM 68.9 °F - 62.6 °F 80% 30.02 in 9.0 mi NW 4.6 mph - N/A   Overcast
8:58 AM 70.0 °F - 63.3 °F 79% 30.00 in 10.0 mi East 3.5 mph - N/A   Overcast
9:55 AM 72.0 °F - 60.8 °F 68% 30.02 in 10.0 mi Calm Calm - N/A   Overcast
10:58 AM 73.4 °F - 59.0 °F 61% 30.02 in 10.0 mi South 4.6 mph - N/A   Overcast
11:58 AM 74.7 °F - 58.8 °F 58% 30.04 in 10.0 mi Variable 2.3 mph - N/A   Overcast
12:58 PM 75.6 °F - 58.8 °F 56% 30.04 in 10.0 mi SW 2.3 mph - N/A   Overcast
1:58 PM 76.3 °F - 59.2 °F 55% 30.04 in 10.0 mi Calm Calm - N/A   Overcast
2:58 PM 76.3 °F - 59.2 °F 55% 30.04 in 10.0 mi Calm Calm - N/A   Partly Cloudy
3:58 PM 80.2 °F 80.9 °F 59.7 °F 49% 29.98 in 10.0 mi East 3.5 mph - N/A   Scattered Clouds
4:58 PM 80.2 °F 80.9 °F 59.5 °F 49% 29.98 in 10.0 mi Variable 3.5 mph - N/A   Overcast
5:58 PM 80.2 °F 81.0 °F 59.9 °F 50% 29.99 in 10.0 mi Variable 2.3 mph - N/A   Mostly Cloudy
6:58 PM 79.9 °F - 60.6 °F 52% 29.98 in 10.0 mi SSE 2.3 mph - N/A   Partly Cloudy
7:58 PM 78.3 °F - 61.7 °F 57% 29.98 in 10.0 mi Calm Calm - N/A   Scattered Clouds
8:58 PM 72.9 °F - 62.4 °F 70% 29.97 in 10.0 mi ENE 2.3 mph - N/A   Clear
9:58 PM 72.7 °F - 62.2 °F 70% 29.99 in 10.0 mi Calm Calm - N/A   Clear
10:58 PM 70.5 °F - 63.1 °F 77% 29.99 in 9.0 mi Calm Calm - N/A   Clear
11:58 PM 70.9 °F - 62.8 °F 75% 29.98 in 10.0 mi East 3.5 mph - N/A   Mostly Cloudy